Location: Home
(42.5358°N, 72.7383°W)
Time: 17:46:17
(UTC-05:00)

Tiros 1 - Pass Details

Date: 04 December 2021
Orbit: 629 x 664 km, 48.4° (Epoch: 26 January)

Event Time Altitude Azimuth Distance (km) Brightness Sun altitude
Rises 16:56:30 0° 204° (SSW) 2,902 11.3 -7.1°
Reaches altitude 10° 16:59:08 10° 191° (S) 2,001 10.2 -7.6°
Maximum altitude 17:02:51 25° 137° (SE) 1,294 8.5 -8.2°
Enters shadow 17:06:34 10° 83° (E) 2,008 9.1 -8.9°
